RH
74 78 77 76 72 70 62 52 44 41 44 40 52 62 63 67 49 58 45 59 55 60 46 60 56 51 54 44 60 53 63 82 67 85 77 81 86 84 82 85 91 82 84 88
73 73 74 75 73 68 66 53 52 45 38 36 56 58 61 64 47 44 41 43 35 49 38 59 40 44 44 41 56 80 64 73 63 83 90 78 77 82 88 86 85 81 88 91
68 74 72 74 72 66 55 50 44 51 51 58 60 66 59 62 52 45 39 37 34 38 35 36 51 52 50 44 53 67 73 76 72 66 82 74 84 76 84 90 82 89 90 90
67 70 72 71 69 66 52 61 87 80 56 57 58 63 65 60 62 40 38 36 44 56 60 35 47 46 48 42 57 54 64 83 66 73 66 66 69 64 76 84 89 87 89 86
71 70 71 69 66 65 59 68 72 72 68 66 58 66 74 65 63 46 53 54 58 43 59 67 79 67 55 60 47 55 57 75 67 79 58 50 56 51 45 62 71 84 82 84
77 74 73 70 68 62 66 72 75 80 73 68 59 69 68 59 71 53 49 54 57 48 53 57 57 52 60 71 67 59 72 73 70 68 62 67 67 59 57 61 61 77 74 82
79 79 74 74 71 74 67 70 76 87 69 59 65 75 70 59 52 68 62 51 54 54 52 64 58 65 66 63 57 59 53 79 74 64 60 74 67 52 59 58 62 66 77 70
76 80 78 75 73 73 71 78 77 91 81 72 73 70 61 46 44 51 56 55 57 57 46 61 64 40 39 45 45 48 53 73 81 69 49 63 63 51 51 62 52 58 64 51
77 78 81 79 76 73 78 81 78 88 93 70 72 67 70 45 42 37 50 50 55 43 45 49 51 36 54 40 40 50 49 64 57 70 56 49 48 39 48 54 53 50 55 59
79 79 81 84 78 75 81 83 84 83 90 72 82 68 53 70 75 64 58 58 53 42 46 46 52 40 63 53 54 46 47 58 58 58 61 43 38 44 52 59 56 55 58 66
80 80 80 83 78 74 77 83 81 86 90 81 76 75 85 85 77 61 51 49 64 61 57 55 53 62 64 73 61 74 59 66 54 65 68 56 43 63 70 61 62 64 69 68
83 82 81 82 80 74 74 82 75 74 92 78 74 73 63 53 60 77 86 60 65 68 69 77 72 64 76 76 40 78 79 67 60 60 38 47 51 70 71 83 90 79 87 71
86 84 82 85 78 76 70 81 76 80 82 74 78 81 78 68 58 54 81 74 85 84 81 81 82 83 60 60 61 72 66 72 71 72 69 70 67 74 71 88 90 88 83 88
85 82 83 84 79 70 70 77 81 80 74 80 70 64 71 65 66 65 63 81 83 88 79 93 90 83 61 66 76 67 67 78 77 79 76 78 74 77 89 92 84 86 87 90
85 86 84 83 78 74 77 78 76 76 74 66 58 72 71 65 67 70 67 76 90 94 95 94 91 85 86 87 84 85 84 81 79 66 80 90 86 91 91 89 91 93 98 94
88 87 84 86 83 77 74 79 76 72 73 85 62 68 73 70 70 74 79 80 90 94 92 92 92 89 90 90 86 74 84 85 85 86 91 91 91 91 90 91 92 93 99 97
86 82 77 80 87 76 64 63 68 75 73 85 66 47 69 71 76 79 81 87 88 90 91 90 85 85 84 89 90 73 78 82 88 92 93 91 83 89 94 98 95 99 94 95
82 80 82 81 70 72 75 82 84 74 70 72 83 57 42 71 77 82 82 88 84 85 88 87 84 82 85 94 83 82 80 83 93 94 92 92 93 91 91 96 97 95 95 93
78 81 81 78 76 77 94 86 76 83 71 89 86 69 62 65 75 82 86 84 90 85 88 84 81 84 92 79 81 81 78 90 93 93 93 90 87 90 93 90 90 92 90 78
82 82 80 90 95 96 80 67 77 81 85 89 78 73 68 68 72 86 87 86 87 93 88 78 88 86 81 82 84 87 86 91 92 92 90 75 77 76 77 76 69 70 71 70
94 99 98 99 93 72 74 88 81 79 72 89 79 80 76 78 92 89 88 92 88 90 80 86 82 80 89 79 92 93 92 90 92 90 80 73 76 81 75 70 66 68 69 73
96 97 94 67 67 73 67 74 75 71 70 70 80 89 88 89 89 91 90 91 88 87 78 88 83 73 91 87 88 92 90 90 88 75 62 64 66 68 74 72 72 72 72 74
81 78 81 78 78 72 87 96 92 94 94 93 93 94 89 88 88 92 91 90 93 84 92 84 77 80 86 94 91 87 85 86 80 61 63 67 68 69 74 79 71 76 78 74
91 96 98 92 87 76 81 93 94 87 93 92 92 92 91 88 91 89 89 92 88 91 90 73 80 92 95 91 89 91 87 81 70 67 75 75 78 76 72 76 81 84 83 78
98 92 99 98 84 89 88 94 93 92 91 93 91 89 84 90 91 86 90 91 91 90 90 90 89 94 95 92 89 91 91 80 78 81 83 82 82 80 80 76 79 78 79 78
94 87 93 90 95 94 95 94 94 91 91 91 86 92 91 92 90 89 90 90 91 91 94 90 91 92 94 92 90 87 86 94 94 89 88 85 87 89 86 82 75 77 79 81
89 95 83 91 96 94 92 90 90 90 92 94 94 93 94 92 92 90 89 92 92 93 88 87 91 96 95 93 89 82 86 86 84 86 81 85 83 87 82 83 74 78 74 75
Wind_Speed
31 30 33 36 36 34 9 3 4 13 9 8 4 6 4 5 10 8 7 4 5 5 7 4 3 4 6 9 7 4 3 3 3 4 2 3 3 4 3 4 4 0 4 5
30 31 32 35 36 28 4 4 2 7 8 7 6 4 5 7 9 9 6 6 6 5 4 0 4 2 1 11 8 5 4 1 2 4 4 4 3 6 3 2 2 3 4 6
28 28 30 33 36 30 3 2 2 5 6 3 4 3 6 3 5 5 3 5 3 2 5 4 3 3 2 6 10 10 1 3 4 3 4 2 3 8 5 3 2 3 3 6
26 28 28 30 33 28 2 6 3 2 5 7 8 3 2 4 4 4 9 2 6 4 4 2 3 6 5 0 11 5 4 3 4 1 7 9 7 6 7 4 2 3 3 3
22 24 24 27 29 21 6 4 3 2 2 2 2 5 3 3 2 3 3 3 4 3 2 1 3 4 5 5 7 5 4 3 2 8 6 7 8 7 4 4 3 1 1 4
20 20 20 22 24 15 5 3 2 3 3 2 1 2 0 1 2 2 1 2 2 1 3 6 7 6 2 4 5 6 4 1 2 4 2 6 5 3 4 3 2 3 3 3
20 17 17 18 18 9 2 2 1 2 2 1 2 0 1 1 1 2 0 0 1 2 2 2 1 2 3 3 2 1 2 2 1 2 4 5 5 2 4 7 9 5 6 6
22 19 13 12 14 10 2 2 1 0 0 1 3 1 0 1 1 2 2 1 2 2 2 2 3 2 2 3 4 1 2 1 2 2 2 3 4 5 3 3 2 6 7 6
20 21 17 7 9 10 1 2 0 2 1 3 1 1 0 1 0 2 2 1 2 2 0 1 3 2 1 2 2 3 3 3 2 2 3 4 5 5 3 3 4 7 7 9
19 20 19 10 4 6 1 1 1 2 2 3 5 2 1 3 2 1 1 1 1 1 1 3 3 2 1 3 3 4 2 0 2 3 4 4 5 7 5 4 4 1 5 10
19 19 19 10 1 3 1 2 1 1 2 3 7 6 5 3 2 0 3 3 2 1 1 2 1 3 1 3 2 3 4 4 3 2 3 4 10 7 6 4 1 5 8 10
19 19 19 10 0 3 2 1 1 1 2 1 3 4 3 4 4 3 2 3 2 2 2 2 1 4 2 2 4 1 4 3 1 6 1 3 9 2 2 2 2 6 5 9
19 21 19 3 3 4 2 2 1 1 2 2 2 4 1 2 3 1 2 2 3 3 2 2 1 5 3 3 4 3 5 3 3 2 2 3 5 1 0 2 4 3 5 6
20 20 18 5 6 6 4 2 1 0 1 2 2 1 1 2 2 1 2 5 5 4 1 2 3 3 3 2 2 3 2 4 2 6 6 3 3 2 2 1 3 3 5 4
20 20 17 6 10 9 6 2 1 0 2 3 0 0 3 2 3 5 5 6 4 2 2 2 2 0 2 1 2 5 6 5 4 2 2 1 1 2 3 2 3 4 3 6
20 19 3 6 13 10 2 2 2 1 1 2 1 2 1 2 4 5 4 3 2 1 1 1 1 1 2 2 3 2 4 2 2 2 1 3 3 1 2 4 4 3 5 6
19 10 1 6 14 2 1 2 2 5 2 0 1 1 2 2 3 2 2 2 2 1 2 1 1 0 3 1 4 2 3 4 2 3 2 3 1 3 3 4 5 6 6 6
14 5 9 8 7 6 1 2 6 2 2 1 0 1 1 2 1 1 1 2 1 2 2 1 0 1 1 4 7 5 4 4 5 6 1 2 2 2 4 2 4 5 6 6
7 10 10 2 2 1 2 9 8 3 1 0 1 1 2 1 2 2 2 0 1 1 1 1 2 1 5 5 5 6 3 3 1 3 2 0 2 4 5 5 6 6 7 8
7 1 1 0 2 4 4 2 1 2 3 1 1 1 1 2 0 2 1 1 2 0 2 2 2 3 6 8 7 8 5 2 2 3 3 3 4 5 6 6 6 7 8 9
1 2 1 1 1 0 2 1 1 2 1 1 1 2 2 2 2 1 3 1 1 0 2 2 0 3 3 4 6 1 2 1 0 2 4 5 6 6 6 7 7 7 8 8
2 2 2 0 2 1 1 1 1 1 2 1 1 1 1 1 1 1 2 2 0 1 3 1 2 3 5 6 6 4 3 2 2 3 5 4 5 5 5 6 6 7 8 8
1 2 2 3 2 3 3 5 2 3 2 1 1 1 1 2 2 3 0 1 1 1 0 2 3 3 7 6 3 3 2 2 3 3 3 4 4 4 4 6 6 7 7 7
2 3 6 3 3 1 1 2 2 3 3 4 2 1 2 2 2 1 1 2 1 1 1 2 2 6 7 4 2 3 4 4 4 4 3 4 5 5 6 5 5 6 7 8
1 2 3 2 2 4 2 2 3 2 2 2 0 2 1 2 2 2 1 1 2 2 2 3 5 5 5 5 5 4 4 4 3 3 4 5 5 5 6 5 6 6 7 7
2 2 2 1 3 2 2 1 3 2 2 0 2 2 2 2 1 1 1 1 2 2 3 6 5 8 5 6 5 4 3 2 3 3 4 5 5 5 6 7 6 6 7 7
2 1 1 3 4 4 2 2 2 2 2 2 1 2 3 1 1 2 2 2 4 7 7 5 7 6 6 5 5 4 3 4 4 4 4 5 5 5 6 6 6 7 7 7
Wind_Direction
5 5 3 359 0 353 32 5 52 342 335 49 43 50 18 6 7 22 46 28 15 356 11 27 91 64 18 351 341 352 12 334 281 41 72 307 328 21 324 277 108 350 310 105
6 5 5 359 0 10 318 53 24 354 354 58 61 80 66 43 26 26 16 18 15 18 18 245 45 78 57 9 2 10 351 75 237 146 176 178 63 24 318 278 245 286 301 116
10 6 8 2 359 6 29 30 21 39 51 47 62 81 39 53 39 51 47 20 31 19 21 26 39 32 42 350 4 11 355 54 360 348 35 349 65 20 359 314 264 8 36 133
13 11 12 8 2 360 34 15 65 358 17 44 59 78 20 21 27 32 26 41 34 21 16 3 20 9 342 41 7 21 38 78 14 51 86 99 100 61 52 72 7 299 50 96
12 13 14 13 11 1 60 45 2 8 56 69 74 25 49 23 18 3 28 32 348 4 44 267 278 353 26 25 336 25 355 112 141 88 109 99 84 56 73 98 28 154 271 188
2 7 12 16 22 17 44 44 74 276 10 77 153 64 353 1 307 171 50 340 298 284 325 297 275 257 260 326 348 357 12 39 233 151 244 269 225 46 45 311 275 267 297 62
350 359 7 10 21 50 77 20 309 321 100 71 59 234 234 262 274 272 272 77 263 64 324 159 161 148 205 238 239 321 350 110 349 134 188 226 94 198 285 289 294 210 218 247
347 347 355 4 7 29 58 8 3 42 292 341 179 263 257 256 290 230 257 116 13 322 175 248 270 207 224 222 237 224 350 164 107 261 243 348 223 228 229 248 253 215 234 266
340 340 345 340 358 19 67 78 14 151 229 175 88 163 174 300 331 182 192 79 333 219 223 198 261 271 28 238 215 153 114 82 262 154 256 252 122 163 142 184 233 190 233 294
335 335 337 351 337 11 112 134 196 211 251 187 171 194 162 132 135 233 281 352 161 335 194 239 244 248 352 251 232 181 196 116 241 191 260 275 222 132 143 254 29 106 307 306
327 329 329 347 300 27 155 70 348 237 217 237 206 186 156 148 205 243 123 193 158 129 138 271 68 262 147 255 282 217 208 181 182 138 236 261 140 117 212 31 20 323 305 305
321 319 323 352 333 78 153 158 35 321 224 322 198 222 210 201 192 142 183 357 148 161 114 209 208 229 184 308 274 170 242 239 254 220 255 48 178 82 82 113 295 319 305 306
320 322 330 9 125 95 83 110 66 193 263 243 250 233 174 174 210 237 217 204 120 163 22 133 27 255 165 237 235 273 212 178 256 283 102 229 243 85 65 197 318 342 309 297
318 322 332 136 136 129 125 99 91 15 73 278 98 147 101 356 174 117 50 118 91 87 181 192 214 253 206 256 347 265 17 163 211 258 269 253 176 173 87 351 321 304 306 286
319 319 327 157 146 123 99 97 98 16 322 302 322 106 43 28 133 115 115 127 129 154 166 187 227 144 210 117 259 241 185 196 200 281 78 10 317 126 142 315 287 295 281 297
324 327 346 169 150 138 132 190 178 168 10 224 229 88 107 85 105 104 96 112 99 130 194 164 160 112 285 274 266 273 223 245 276 294 159 273 333 84 105 297 305 290 263 253
335 348 44 166 154 106 3 21 78 152 167 231 226 227 126 114 113 78 91 58 86 25 105 143 351 219 237 261 255 256 247 242 243 205 238 244 191 309 324 261 280 304 288 270
352 66 106 106 110 105 84 11 122 112 84 40 188 266 222 167 130 152 35 108 134 56 84 128 284 160 283 257 254 266 255 262 254 214 194 312 332 288 299 273 299 315 303 300
18 124 109 89 36 61 75 87 90 55 3 265 301 318 338 160 95 86 134 287 114 74 77 80 259 151 236 253 292 293 273 245 18 192 271 206 278 298 291 289 301 306 310 324
117 139 230 97 13 89 94 38 27 37 360 36 251 18 301 322 297 103 155 38 74 147 57 295 230 259 264 274 275 275 266 190 165 294 304 285 284 302 313 307 308 312 314 319
354 310 37 66 343 89 31 307 334 347 308 167 311 271 306 48 285 37 19 91 23 199 73 299 274 262 269 298 312 290 133 167 273 309 286 268 266 283 295 305 307 308 310 312
351 62 74 111 30 47 22 305 259 226 356 207 260 1 244 83 358 107 37 77 350 33 338 289 248 242 274 303 298 217 210 242 283 266 287 288 288 289 290 298 299 301 305 307
73 43 42 3 345 31 39 345 360 343 346 188 260 300 113 147 100 79 81 67 50 209 135 268 257 293 311 325 319 219 214 278 286 293 291 300 300 304 300 304 303 305 297 304
40 13 334 21 340 35 260 305 303 314 292 331 348 13 2 72 65 70 12 60 258 257 309 272 275 320 338 345 330 311 314 312 313 311 312 309 313 312 313 307 307 303 301 308
45 60 318 329 322 260 277 297 284 252 305 322 125 75 8 37 73 29 123 307 326 271 271 268 317 360 325 323 327 320 312 317 313 316 308 310 311 316 309 314 309 303 303 305
58 22 311 323 284 304 312 308 291 4 352 92 63 81 58 50 13 9 17 282 267 318 268 301 345 334 326 322 321 315 313 281 285 286 279 291 295 310 305 303 297 312 311 307
10 313 338 270 268 281 301 296 350 335 322 3 37 29 45 119 340 294 212 259 305 309 310 339 331 317 318 318 309 305 294 293 292 286 290 288 290 292 294 300 314 311 309 304